Estevan,

11:47 PM CST on November 17, 2017 (GMT -0600)
Estevan

Weather History for CYEN - November, 2013

Change the Weather History Date:

Sunday, November 10, 2013

  Actual Average Record
Temperature  
Mean Temperature 17 °F -  
Max Temperature 29 °F 30 °F 57 °F (2001)
Min Temperature 3 °F 11 °F 1 °F (2000)
Degree Days  
Heating Degree Days 48    
Moisture  
Dew Point 12 °F    
Average Humidity 71    
Maximum Humidity 93    
Minimum Humidity 36    
Precipitation  
Precipitation 0.00 in 0.02 in - ()
Sea Level Pressure  
Sea Level Pressure 30.36 in    
Wind  
Wind Speed 10 mph ()    
Max Wind Speed 18 mph    
Max Gust Speed 23 mph    
Visibility 15.0 miles    
Events      
Averages and records for this station are not official NWS values.
T = Trace of Precipitation, MM = Missing Value Source: Averaged Metar Reports

Daily Weather History Graph

Daily Weather History Graph

Search for Another Location

Airport or City:

Trip Planner

Search our weather history database for the weather conditions in past years. The results will help you decide how hot, cold, wet, or windy it might be!

Date:

Astronomy

Nov. 10, 2013 Rise Set
Actual Time 7:54 AM CST 5:16 PM CST
Civil Twilight 7:20 AM CST 5:50 PM CST
Nautical Twilight 6:41 AM CST 6:28 PM CST
Astronomical Twilight 6:04 AM CST 7:06 PM CST
Moon 1:57 PM CST (11/10) No Moon Set
Length of Visible Light 10h 30m
Length of Day
9h 21m
First Quarter, 56% of the Moon is Illuminated
Nov 10
First Quarter
Nov 17
Full
Nov 25
Last Quarter
Dec 2
New
Dec 9
First Quarter

Hourly Weather History & Observations

Time (CST) Temp. Windchill Dew Point Humidity Pressure Visibility Wind Dir Wind Speed Gust Speed Precip Events Conditions
12:00 AM 23 °F - 21 °F 91% 30.25 in 15 mi SSW 8.1 mph - -   Clear
12:00 AM 23.0 °F 13.9 °F 21.2 °F 93% 30.25 in 15.0 mi SSW 8.1 mph - N/A   Mostly Cloudy
1:00 AM 24.8 °F 15.3 °F 23.0 °F 93% 30.23 in 15.0 mi SSW 9.2 mph - N/A   Overcast
2:00 AM 26.6 °F 16.2 °F 24.8 °F 93% 30.21 in 15.0 mi SSW 11.5 mph - N/A   Overcast
3:00 AM 28.4 °F 19.1 °F 24.8 °F 86% 30.19 in 15.0 mi SW 10.4 mph - N/A   Overcast
4:00 AM 28.4 °F 17.5 °F 24.8 °F 86% 30.20 in 15.0 mi WSW 13.8 mph - N/A   Overcast
5:00 AM 30.2 °F 22.6 °F 24.8 °F 80% 30.19 in 15.0 mi WSW 8.1 mph - N/A   Mostly Cloudy
6:00 AM 29 °F - 26 °F 82% 30.22 in 15 mi NW 12.7 mph - -   Mostly Cloudy
6:00 AM 28.4 °F 18.0 °F 26.6 °F 93% 30.22 in 15.0 mi NW 12.7 mph - N/A   Mostly Cloudy
7:00 AM 26.6 °F 16.2 °F 24.8 °F 93% 30.24 in 15.0 mi NNW 11.5 mph - N/A   Overcast
8:00 AM 26.6 °F 13.4 °F 23.0 °F 86% 30.26 in 15.0 mi NNW 18.4 mph - N/A   Overcast
9:00 AM 23.0 °F 9.2 °F 19.4 °F 86% 30.31 in 15.0 mi NNW 17.3 mph 23.0 mph N/A   Overcast
10:00 AM 19.4 °F 6.0 °F 10.4 °F 68% 30.34 in 15.0 mi North 13.8 mph - N/A   Overcast
11:00 AM 19.4 °F 6.6 °F 8.6 °F 63% 30.37 in 15.0 mi North 12.7 mph - N/A   Overcast
12:00 PM 18 °F - 4 °F 41% 30.39 in 15 mi North 15.0 mph - -   Overcast
12:00 PM 17.6 °F 3.2 °F 5.0 °F 58% 30.39 in 15.0 mi North 15.0 mph - N/A   Overcast
1:00 PM 17.6 °F 3.7 °F 3.2 °F 53% 30.39 in 15.0 mi North 13.8 mph - N/A   Overcast
2:00 PM 17.6 °F 5.7 °F -0.4 °F 45% 30.39 in 15.0 mi NNW 10.4 mph - N/A   Overcast
3:00 PM 19.4 °F 4.5 °F 1.4 °F 46% 30.41 in 15.0 mi NNW 17.3 mph - N/A   Overcast
4:00 PM 17.6 °F 3.7 °F 1.4 °F 49% 30.43 in 15.0 mi North 13.8 mph - N/A   Overcast
5:00 PM 15.8 °F 2.1 °F -0.4 °F 49% 30.45 in 15.0 mi North 12.7 mph - N/A   Overcast
6:00 PM 15 °F - 0 °F 36% 30.47 in 15 mi North 12.7 mph - -   Overcast
6:00 PM 14.0 °F -0.2 °F -0.4 °F 53% 30.47 in 15.0 mi North 12.7 mph - N/A   Overcast
7:00 PM 14.0 °F 1.2 °F 1.4 °F 57% 30.50 in 15.0 mi NNW 10.4 mph - N/A   Overcast
8:00 PM 12.2 °F -2.5 °F 1.4 °F 62% 30.52 in 15.0 mi North 12.7 mph - N/A   Overcast
9:00 PM 8.6 °F -2.6 °F 1.4 °F 73% 30.56 in 15.0 mi North 6.9 mph - N/A   Scattered Clouds
10:00 PM 5.0 °F -5.6 °F 1.4 °F 85% 30.58 in 15.0 mi North 5.8 mph - N/A   Partly Cloudy
11:00 PM 3.2 °F -7.8 °F 1.4 °F 92% 30.59 in 15.0 mi NNW 5.8 mph - N/A   Partly Cloudy